Eagle, CO

7:35 AM MST on November 20, 2017 (GMT -0700)
Eagle County Regional

Weather History for KEGE - December, 2012

Change the Weather History Date:

Wednesday, December 12, 2012

  Actual Average Record
Temperature  
Mean Temperature 26 °F -  
Max Temperature 44 °F 34 °F 52 °F (1950)
Min Temperature 8 °F 8 °F -14 °F (1972)
Degree Days  
Heating Degree Days 39    
Moisture  
Dew Point 14 °F    
Average Humidity 79    
Maximum Humidity 100    
Minimum Humidity 31    
Precipitation  
Precipitation 0.00 in - - ()
Sea Level Pressure  
Sea Level Pressure 29.94 in    
Wind  
Wind Speed 4 mph (East)    
Max Wind Speed 8 mph    
Max Gust Speed -    
Visibility 10 miles    
Events      
Averages and records for this station are not official NWS values.
T = Trace of Precipitation, MM = Missing Value Source: NWS Daily Summary

Daily Weather History Graph

Daily Weather History Graph

Search for Another Location

Airport or City:

Trip Planner

Search our weather history database for the weather conditions in past years. The results will help you decide how hot, cold, wet, or windy it might be!

Date:

Astronomy

Dec. 12, 2012 Rise Set
Actual Time 7:19 AM MST 4:43 PM MST
Civil Twilight 6:49 AM MST 5:14 PM MST
Nautical Twilight 6:15 AM MST 5:47 PM MST
Astronomical Twilight 5:42 AM MST 6:20 PM MST
Moon 6:27 AM MST (12/12) 4:23 PM MST (12/12)
Length of Visible Light 10h 24m
Length of Day
9h 24m
Waning Crescent, 0% of the Moon is Illuminated
Dec 12
Waning Crescent
Dec 13
New
Dec 19
First Quarter
Dec 28
Full
Jan 4
Last Quarter

Hourly Weather History & Observations

Time (MST) Temp. Windchill Dew Point Humidity Pressure Visibility Wind Dir Wind Speed Gust Speed Precip Events Conditions
12:15 AM 15.8 °F 10.2 °F 12.2 °F 86% 29.98 in 10.0 mi ESE 3.5 mph - N/A   Clear
12:35 AM 15.8 °F 8.6 °F 12.2 °F 86% 29.97 in 10.0 mi East 4.6 mph - N/A   Clear
12:55 AM 15.8 °F - 10.4 °F 79% 29.97 in 10.0 mi Calm Calm - N/A   Clear
1:15 AM 12.2 °F 6.1 °F 10.4 °F 92% 29.97 in 10.0 mi SSE 3.5 mph - N/A   Partly Cloudy
1:35 AM 14.0 °F - 10.4 °F 86% 29.98 in 10.0 mi Calm Calm - N/A   Scattered Clouds
1:55 AM 14.0 °F 3.9 °F 10.4 °F 86% 29.98 in 10.0 mi East 6.9 mph - N/A   Clear
2:15 AM 12.2 °F 0.7 °F 10.4 °F 92% 29.98 in 10.0 mi East 8.1 mph - N/A   Clear
2:35 AM 12.2 °F 2.9 °F 10.4 °F 92% 29.98 in 10.0 mi East 5.8 mph - N/A   Clear
2:55 AM 12.2 °F - 10.4 °F 92% 29.97 in 10.0 mi Calm Calm - N/A   Clear
3:15 AM 14.0 °F - 10.4 °F 86% 29.96 in 10.0 mi Calm Calm - N/A   Clear
3:35 AM 12.2 °F - 10.4 °F 92% 29.95 in 10.0 mi Calm Calm - N/A   Clear
3:55 AM 12.2 °F 4.3 °F 10.4 °F 92% 29.95 in 10.0 mi SE 4.6 mph - N/A   Clear
4:15 AM 12.2 °F 6.1 °F 10.4 °F 92% 29.94 in 10.0 mi East 3.5 mph - N/A   Clear
4:35 AM 12.2 °F 1.7 °F 10.4 °F 92% 29.94 in 10.0 mi East 6.9 mph - N/A   Clear
4:55 AM 10.4 °F 0.8 °F 10.4 °F 100% 29.94 in 10.0 mi East 5.8 mph - N/A   Clear
5:15 AM 12.2 °F 4.3 °F 10.4 °F 92% 29.94 in 10.0 mi East 4.6 mph - N/A   Clear
5:35 AM 10.4 °F -0.4 °F 8.6 °F 92% 29.94 in 10.0 mi ESE 6.9 mph - N/A   Clear
6:15 AM 10.4 °F - 8.6 °F 92% 29.95 in 10.0 mi Calm Calm - N/A   Clear
6:35 AM 8.6 °F 2.0 °F 8.6 °F 100% 29.95 in 10.0 mi SE 3.5 mph - N/A   Clear
6:50 AM 8.6 °F - 6.8 °F 92% 29.96 in 10.0 mi Calm Calm - N/A   Partly Cloudy
7:50 AM 8.6 °F - 6.8 °F 92% 29.97 in 10.0 mi Calm Calm - N/A   Partly Cloudy
8:50 AM 10.4 °F - 8.6 °F 92% 29.97 in 10.0 mi Calm Calm - N/A   Partly Cloudy
9:50 AM 15.8 °F - 10.4 °F 79% 29.96 in 10.0 mi Calm Calm - N/A   Scattered Clouds
10:50 AM 21.2 °F - 15.8 °F 80% 29.94 in 10.0 mi Calm Calm - N/A   Partly Cloudy
11:50 AM 26.6 °F - 17.6 °F 69% 29.90 in 10.0 mi Calm Calm - N/A   Partly Cloudy
12:50 PM 33.8 °F - 19.4 °F 56% 29.88 in 10.0 mi Calm Calm - N/A   Partly Cloudy
1:50 PM 42.8 °F 39.3 °F 15.8 °F 34% 29.86 in 10.0 mi West 5.8 mph - N/A   Scattered Clouds
2:50 PM 44.6 °F 40.2 °F 15.8 °F 31% 29.86 in 10.0 mi WSW 8.1 mph - N/A   Mostly Cloudy
3:50 PM 42.8 °F 39.3 °F 17.6 °F 36% 29.87 in 10.0 mi West 5.8 mph - N/A   Mostly Cloudy
4:50 PM 39.2 °F 34.2 °F 19.4 °F 45% 29.89 in 10.0 mi West 6.9 mph - N/A   Mostly Cloudy
5:50 PM 33.8 °F 28.6 °F 21.2 °F 60% 29.90 in 10.0 mi East 5.8 mph - N/A   Mostly Cloudy
6:50 PM 32.0 °F 25.6 °F 21.2 °F 64% 29.91 in 10.0 mi ESE 6.9 mph - N/A   Scattered Clouds
7:50 PM 30.2 °F 22.6 °F 21.2 °F 69% 29.92 in 10.0 mi East 8.1 mph - N/A   Scattered Clouds
8:50 PM 30.2 °F 26.7 °F 21.2 °F 69% 29.94 in 10.0 mi East 3.5 mph - N/A   Mostly Cloudy
9:50 PM 28.4 °F 22.2 °F 21.2 °F 74% 29.95 in 10.0 mi NE 5.8 mph - N/A   Overcast
10:50 PM 28.4 °F 20.4 °F 23.0 °F 80% 29.95 in 10.0 mi ENE 8.1 mph - N/A   Overcast
10:55 PM 28.4 °F 23.3 °F 23.0 °F 80% 29.96 in 10.0 mi East 4.6 mph - N/A   Mostly Cloudy
11:15 PM 28.4 °F 23.3 °F 23.0 °F 80% 29.96 in 10.0 mi SE 4.6 mph - N/A   Mostly Cloudy
11:35 PM 28.4 °F 22.2 °F 23.0 °F 80% 29.96 in 10.0 mi East 5.8 mph - N/A   Overcast
11:55 PM 28.4 °F 24.6 °F 23.0 °F 80% 29.96 in 10.0 mi ENE 3.5 mph - N/A   Mostly Cloudy